CZ-4 DEB

Satellite information

Favourite Embed

Satellite Type and Status

DEBRISIN ORBIT

Key statistics

Satellite CZ-4 DEB at a glance.

Uptime

12726

Days in orbit

Revolutions

≈ 14.2

Per day

Orbit

SSO

Sun Synchronous Orbit

Inclination

98.7

Latest

Satellite identification and parameters

Extended collection of information and parameters for CZ-4 DEB.

Object identification

Identified? True

Debris? True

Object name: CZ-4 DEB

International designator: 1990-081DK

Object number (NORAD): 37623

Object ID (CCSDS): 37623

Country: PEOPLES REPUBLIC OF CHINA (PRC)

Current information (Y/N): Y

RCS size: SMALL

Orbital parameters

Period: 101.475 minutes

Inclination: 98.7033 deg

SMA: 7206.655 km

Apoapsis: 844.99 km

Periapsis: 812.05 km

RAAN: 173.4659 deg

Eccentricy: 0.0022854

Argument of periapsis: 62.9899 deg

Mean anomaly: 297.3607 deg

Mean motion: 14.19064579 rev/day

Mean motion (dot): 0.00000427 rev/day2

B* drag term: 0.00022458 1/REarth

Two-line elements (TLE)

Creation date: July 5, 2025, 4:36 a.m.

Reference frame: TEME

Reference center: EARTH

Epoch: July 4, 2025, 5:39 p.m. UTC

TLE line 0: 0 CZ-4 DEB

TLE line 1: 1 37623U 90081DK 25185.73585970 .00000427 00000-0 22458-3 0 9991

TLE line 2: 2 37623 98.7033 173.4659 0022854 62.9899 297.3607 14.19064579617938

Live tracking on map

Real-time ground track for satellite CZ-4 DEB.

In-orbit conjunctions

A list of the most updated potential collisions computed for object CZ-4 DEB.

Target Orbit TCA Probability of collision Miss distance Type
CZ-4 DEB SSO 2025-07-04 12:09:28 0.0006215353 87.0 (m) DEBRIS
CZ-6A DEB LEO 2024-12-01 01:46:44 0.0001210919 736.0 (m) DEBRIS
SL-3 R/B LEO 2024-11-12 18:29:51 0.0002674438 136.0 (m) ROCKET BODY
CZ-6A DEB SSO 2024-11-11 12:40:17 0.001771383 209.0 (m) DEBRIS

Associated space launch

Chinese polar orbiting meteorological satellite

CZ-4 DEB was lifted into orbit during the mission ‘Long March 4A | Feng Yun 1B’, on board a Long March 4A space rocket.

The launch took place on Sept. 3, 1990, 12:53 a.m. from Launch Complex 7.

For more information about the launch, click the button.

Launch to space Long March 4A | Feng Yun 1B
Long March 4A | Feng Yun 1B

Agency: N/A

Status: Launch Successful

Launch date: Sept. 3, 1990, 12:53 a.m. UTC

Rocket: Long March 4A

Launch pad: Launch Complex 7

Location: Taiyuan Satellite Launch Center, People's Republic of China

...

Latest news about this satellite

There are no fresh news available about this satellite. Check back as we update our databases every day.


Newsletter sign-up

Weekly statistics, charts and insights to help you stay on top of the space industry.